DW9439 Weather Reports


Display with metric or nautical units.
time (UTC)temp
F
wind
direction
speed
MPH
gust
MPH
rain 1hr
in
rain 24hr
in
rain mn
in
humidity
%
barometer
mb
20260903222318 100 260 7.0 13.0 0.00 0.00 0.00 21 1011.2
20260903222014 99 260 7.0 13.0 0.00 0.00 0.00 20 1011.1
20260903221711 100 260 7.0 13.0 0.00 0.00 0.00 20 1011.1
20260903221402 100 251 6.0 13.0 0.00 0.00 0.00 21 1011.1
20260903221059 100 277 6.0 13.0 0.00 0.00 0.00 20 1011.2
20260903215907 100 273 7.0 12.0 0.00 0.00 0.00 21 1011.4
20260903215148 99 281 7.0 15.0 0.00 0.00 0.00 20 1011.4
20260903214841 99 275 8.0 15.0 0.00 0.00 0.00 20 1011.4
20260903214535 99 273 7.0 15.0 0.00 0.00 0.00 21 1011.4
20260903214223 99 281 7.0 17.0 0.00 0.00 0.00 21 1011.4
20260903213916 99 246 6.0 17.0 0.00 0.00 0.00 21 1011.5
20260903213153 100 227 10.0 17.0 0.00 0.00 0.00 22 1011.7
20260903212011 99 277 6.0 15.0 0.00 0.00 0.00 22 1011.8
20260903211714 99 275 7.0 15.0 0.00 0.00 0.00 21 1011.9
20260903210949 99 277 8.0 15.0 0.00 0.00 0.00 22 1012.0
20260903210635 99 259 8.0 15.0 0.00 0.00 0.00 21 1012.0
20260903210335 99 200 8.0 15.0 0.00 0.00 0.00 22 1012.2
20260903210029 99 199 10.0 15.0 0.00 0.00 0.00 21 1012.2
20260903205729 99 197 8.0 15.0 0.00 0.00 0.00 21 1012.2
20260903205417 99 211 8.0 15.0 0.00 0.00 0.00 21 1012.2
20260903205117 98 241 7.0 14.0 0.00 0.00 0.00 21 1012.3
20260903204815 98 271 7.0 14.0 0.00 0.00 0.00 21 1012.2
20260903204513 98 267 8.0 14.0 0.00 0.00 0.00 21 1012.4
20260903204210 99 269 7.0 14.0 0.00 0.00 0.00 22 1012.5
20260903203904 99 291 7.0 14.0 0.00 0.00 0.00 21 1012.4
20260903203140 99 235 8.0 14.0 0.00 0.00 0.00 21 1012.4
20260903202838 99 259 7.0 13.0 0.00 0.00 0.00 20 1012.5
20260903202534 99 265 6.0 13.0 0.00 0.00 0.00 22 1012.5
20260903202231 99 276 4.0 13.0 0.00 0.00 0.00 21 1012.5
20260903201505 98 291 4.0 9.0 0.00 0.00 0.00 21 1012.5
20260903200748 98 290 7.0 14.0 0.00 0.00 0.00 21 1012.7
20260903200021 98 301 8.0 17.0 0.00 0.00 0.00 22 1012.7
20260903195724 99 298 8.0 17.0 0.00 0.00 0.00 20 1012.6
20260903195426 99 281 8.0 17.0 0.00 0.00 0.00 21 1012.7
20260903195119 98 286 7.0 17.0 0.00 0.00 0.00 22 1012.8
20260903194821 98 291 7.0 17.0 0.00 0.00 0.00 22 1012.8
20260903194516 98 293 7.0 17.0 0.00 0.00 0.00 21 1012.9
20260903194207 98 288 7.0 13.0 0.00 0.00 0.00 21 1012.9
20260903193910 97 300 6.0 13.0 0.00 0.00 0.00 21 1012.9
20260903193559 98 300 5.0 13.0 0.00 0.00 0.00 21 1013.0
20260903193250 98 308 4.0 13.0 0.00 0.00 0.00 21 1012.8
20260903192950 98 284 5.0 13.0 0.00 0.00 0.00 21 1012.9
20260903192652 98 279 5.0 13.0 0.00 0.00 0.00 21 1013.0
20260903192344 98 279 5.0 13.0 0.00 0.00 0.00 22 1013.1
20260903192042 98 300 5.0 13.0 0.00 0.00 0.00 21 1013.1
20260903191737 98 296 5.0 13.0 0.00 0.00 0.00 22 1013.1
20260903191429 97 296 6.0 13.0 0.00 0.00 0.00 22 1013.2
20260903191127 98 304 6.0 13.0 0.00 0.00 0.00 22 1013.3
20260903185951 97 318 6.0 13.0 0.00 0.00 0.00 22 1013.4
20260903185653 97 298 6.0 13.0 0.00 0.00 0.00 22 1013.4
20260903185354 97 298 7.0 13.0 0.00 0.00 0.00 22 1013.4
20260903185052 97 298 6.0 13.0 0.00 0.00 0.00 22 1013.2
20260903184751 97 298 6.0 13.0 0.00 0.00 0.00 22 1013.4
20260903184444 97 316 6.0 11.0 0.00 0.00 0.00 23 1013.4
20260903184132 97 318 7.0 11.0 0.00 0.00 0.00 23 1013.4
20260903183828 97 321 7.0 12.0 0.00 0.00 0.00 23 1013.4
20260903183525 97 321 6.0 12.0 0.00 0.00 0.00 24 1013.4
20260903183213 97 307 6.0 12.0 0.00 0.00 0.00 24 1013.5
20260903182445 96 311 6.0 13.0 0.00 0.00 0.00 24 1013.7
20260903182132 96 311 5.0 13.0 0.00 0.00 0.00 25 1013.7
20260903181827 96 311 6.0 14.0 0.00 0.00 0.00 25 1013.8
20260903181529 96 313 6.0 14.0 0.00 0.00 0.00 25 1013.8
20260903180804 96 329 7.0 17.0 0.00 0.00 0.00 24 1013.9
20260903180503 96 334 7.0 17.0 0.00 0.00 0.00 23 1014.0
20260903180156 96 341 8.0 17.0 0.00 0.00 0.00 23 1014.0
20260903175856 96 334 9.0 17.0 0.00 0.00 0.00 24 1014.0
20260903175545 96 351 9.0 17.0 0.00 0.00 0.00 23 1014.0
20260903175235 96 348 8.0 17.0 0.00 0.00 0.00 24 1014.0
20260903174939 95 344 8.0 17.0 0.00 0.00 0.00 23 1014.0
20260903174639 95 335 7.0 14.0 0.00 0.00 0.00 24 1014.2
20260903174332 95 337 7.0 14.0 0.00 0.00 0.00 24 1014.1
20260903173605 95 320 8.0 14.0 0.00 0.00 0.00 26 1014.2
20260903173305 95 322 8.0 14.0 0.00 0.00 0.00 25 1014.2
20260903172958 94 298 8.0 14.0 0.00 0.00 0.00 25 1014.3
20260903172657 94 313 8.0 12.0 0.00 0.00 0.00 26 1014.2
20260903172346 94 304 8.0 12.0 0.00 0.00 0.00 27 1014.2
20260903172050 94 298 8.0 15.0 0.00 0.00 0.00 26 1014.2
20260903171750 94 308 8.0 15.0 0.00 0.00 0.00 25 1014.2
20260903171439 94 307 8.0 15.0 0.00 0.00 0.00 27 1014.2
20260903171142 93 306 8.0 15.0 0.00 0.00 0.00 26 1014.2
20260903170835 93 295 8.0 15.0 0.00 0.00 0.00 27 1014.2
20260903170535 93 309 8.0 15.0 0.00 0.00 0.00 28 1014.2
20260903170236 93 313 8.0 15.0 0.00 0.00 0.00 28 1014.2
20260903165457 93 288 7.0 14.0 0.00 0.00 0.00 28 1014.1
20260903165154 92 285 6.0 14.0 0.00 0.00 0.00 29 1014.2
20260903164843 92 283 7.0 14.0 0.00 0.00 0.00 31 1014.1
20260903164538 92 282 7.0 14.0 0.00 0.00 0.00 32 1014.2
20260903164226 91 282 7.0 14.0 0.00 0.00 0.00 32 1014.2
20260903163921 91 271 7.0 12.0 0.00 0.00 0.00 32 1014.3
20260903163620 91 269 7.0 12.0 0.00 0.00 0.00 33 1014.3
20260903163314 90 267 6.0 11.0 0.00 0.00 0.00 36 1014.3
20260903163017 90 267 6.0 11.0 0.00 0.00 0.00 36 1014.1
20260903162706 89 267 6.0 11.0 0.00 0.00 0.00 38 1014.1
20260903162408 89 267 6.0 11.0 0.00 0.00 0.00 37 1014.1
20260903162109 88 267 6.0 10.0 0.00 0.00 0.00 39 1014.1
20260903161803 88 267 6.0 10.0 0.00 0.00 0.00 39 1014.2
20260903160628 86 266 6.0 11.0 0.00 0.00 0.00 41 1014.2
20260903160319 86 266 6.0 11.0 0.00 0.00 0.00 41 1014.2
20260903155548 86 266 6.0 11.0 0.00 0.00 0.00 42 1014.3
20260903155243 85 265 6.0 11.0 0.00 0.00 0.00 42 1014.3
20260903154946 85 265 6.0 11.0 0.00 0.00 0.00 42 1014.3
20260903154647 84 265 6.0 11.0 0.00 0.00 0.00 44 1014.2
20260903154336 84 265 6.0 11.0 0.00 0.00 0.00 43 1014.2
20260903153608 83 264 6.0 10.0 0.00 0.00 0.00 46 1014.2
20260903152836 82 263 6.0 11.0 0.00 0.00 0.00 46 1014.2
20260903152527 82 263 7.0 11.0 0.00 0.00 0.00 47 1014.1
20260903152224 81 263 7.0 11.0 0.00 0.00 0.00 46 1014.0
20260903151923 81 263 7.0 11.0 0.00 0.00 0.00 47 1014.1
20260903151144 80 257 6.0 10.0 0.00 0.00 0.00 48 1014.1
20260903150845 80 256 6.0 11.0 0.00 0.00 0.00 48 1014.2
20260903150533 79 256 6.0 11.0 0.00 0.00 0.00 49 1014.1
20260903145820 78 254 7.0 11.0 0.00 0.00 0.00 49 1014.1
20260903145517 78 254 7.0 11.0 0.00 0.00 0.00 50 1014.1
20260903145204 78 254 7.0 11.0 0.00 0.00 0.00 50 1014.0
20260903144904 78 254 6.0 11.0 0.00 0.00 0.00 51 1014.0
20260903144551 77 251 6.0 12.0 0.00 0.00 0.00 51 1014.0
20260903144246 77 251 6.0 12.0 0.00 0.00 0.00 52 1014.0
20260903143945 77 251 7.0 12.0 0.00 0.00 0.00 52 1014.1
20260903143645 77 250 7.0 12.0 0.00 0.00 0.00 51 1014.0
20260903143336 76 250 7.0 12.0 0.00 0.00 0.00 51 1014.1
20260903143029 76 250 7.0 12.0 0.00 0.00 0.00 52 1014.0
20260903142720 76 244 7.0 11.0 0.00 0.00 0.00 53 1014.1
20260903142408 76 243 7.0 11.0 0.00 0.00 0.00 52 1014.1
20260903142104 76 242 7.0 11.0 0.00 0.00 0.00 53 1014.0
20260903141759 75 240 7.0 11.0 0.00 0.00 0.00 54 1014.0
20260903141449 75 240 7.0 11.0 0.00 0.00 0.00 55 1014.1
20260903141148 75 240 7.0 11.0 0.00 0.00 0.00 54 1014.1
20260903140844 74 239 7.0 11.0 0.00 0.00 0.00 56 1014.1
20260903140120 73 237 7.0 10.0 0.00 0.00 0.00 60 1014.2
20260903135820 72 237 7.0 13.0 0.00 0.00 0.00 62 1014.2
20260903135508 72 237 7.0 13.0 0.00 0.00 0.00 63 1014.2
20260903135211 71 237 7.0 13.0 0.00 0.00 0.00 64 1014.1
20260903134911 71 236 8.0 13.0 0.00 0.00 0.00 65 1014.1
20260903134614 70 236 8.0 13.0 0.00 0.00 0.00 66 1014.0
20260903134315 70 236 8.0 13.0 0.00 0.00 0.00 67 1014.1
20260903134007 69 234 8.0 13.0 0.00 0.00 0.00 68 1014.1
20260903133238 68 223 8.0 12.0 0.00 0.00 0.00 71 1014.0
20260903132930 68 222 7.0 12.0 0.00 0.00 0.00 72 1014.1
20260903132202 67 215 7.0 10.0 0.00 0.00 0.00 74 1014.1
20260903131855 67 214 7.0 10.0 0.00 0.00 0.00 74 1014.0
20260903131550 67 213 7.0 10.0 0.00 0.00 0.00 75 1014.0
20260903130828 66 213 7.0 10.0 0.00 0.00 0.00 76 1013.7
20260903130522 66 213 7.0 10.0 0.00 0.00 0.00 77 1013.6
20260903130219 66 213 7.0 9.0 0.00 0.00 0.00 77 1013.6
20260903125911 66 213 7.0 9.0 0.00 0.00 0.00 77 1013.7
20260903125615 66 213 7.0 9.0 0.00 0.00 0.00 77 1013.7
20260903125313 66 213 6.0 12.0 0.00 0.00 0.00 77 1013.7
20260903125015 66 213 7.0 12.0 0.00 0.00 0.00 76 1013.5
20260903124708 66 213 7.0 12.0 0.00 0.00 0.00 76 1013.5
20260903124408 66 213 8.0 12.0 0.00 0.00 0.00 76 1013.4
20260903123643 66 213 7.0 12.0 0.00 0.00 0.00 76 1013.3
20260903123347 66 213 7.0 11.0 0.00 0.00 0.00 76 1013.3
20260903123050 66 213 7.0 13.0 0.00 0.00 0.00 76 1013.4
20260903122750 66 213 7.0 13.0 0.00 0.00 0.00 75 1013.4
20260903122437 66 213 8.0 13.0 0.00 0.00 0.00 75 1013.3
20260903122140 66 212 8.0 13.0 0.00 0.00 0.00 75 1013.1
20260903121419 66 212 8.0 13.0 0.00 0.00 0.00 74 1013.2
20260903121117 67 212 8.0 13.0 0.00 0.00 0.00 74 1013.2
20260903120818 67 211 8.0 12.0 0.00 0.00 0.00 74 1013.1
20260903120522 67 211 9.0 12.0 0.00 0.00 0.00 74 1013.1
20260903120217 67 211 9.0 12.0 0.00 0.00 0.00 73 1013.1
20260903115908 67 211 9.0 12.0 0.00 0.00 0.00 73 1013.1
20260903115154 67 209 9.0 12.0 0.00 0.00 0.00 74 1013.1
20260903114842 67 207 8.0 12.0 0.00 0.00 0.00 74 1013.0
20260903114535 67 207 8.0 11.0 0.00 0.00 0.00 73 1013.0
20260903113807 67 207 8.0 11.0 0.00 0.00 0.00 72 1012.9
20260903113506 67 207 8.0 11.0 0.00 0.00 0.00 72 1013.0
20260903112732 68 207 8.0 10.0 0.00 0.00 0.00 71 1012.8
20260903110651 69 206 9.0 14.0 0.00 0.00 0.00 69 1012.8
20260903110348 69 205 9.0 14.0 0.00 0.00 0.00 69 1013.4
20260903110034 69 205 10.0 14.0 0.00 0.00 0.00 69 1012.8
20260903105734 69 205 10.0 14.0 0.00 0.00 0.00 69 1012.8
20260903105421 69 204 10.0 14.0 0.00 0.00 0.00 69 1012.8
20260903105122 69 204 10.0 14.0 0.00 0.00 0.00 69 1013.0
20260903104822 69 202 10.0 14.0 0.00 0.00 0.00 69 1012.9
20260903103655 69 200 9.0 12.0 0.00 0.00 0.00 69 1012.8
20260903103357 69 198 10.0 14.0 0.00 0.00 0.00 69 1012.9
20260903103050 69 198 10.0 14.0 0.00 0.00 0.00 69 1012.8
20260903102754 69 198 10.0 14.0 0.00 0.00 0.00 69 1012.8
20260903102442 69 198 10.0 14.0 0.00 0.00 0.00 69 1012.8
20260903102132 69 198 10.0 14.0 0.00 0.00 0.00 68 1012.8
20260903101827 69 198 10.0 14.0 0.00 0.00 0.00 68 1012.8
20260903101514 70 198 10.0 13.0 0.00 0.00 0.00 68 1012.7
20260903100739 70 200 10.0 13.0 0.00 0.00 0.00 67 1012.9
20260903100024 71 198 10.0 14.0 0.00 0.00 0.00 66 1012.8
20260903094844 71 200 11.0 14.0 0.00 0.00 0.00 66 1012.9
20260903094120 71 198 10.0 13.0 0.00 0.00 0.00 66 1012.8
20260903093404 71 196 10.0 15.0 0.00 0.00 0.00 66 1012.9
20260903093058 71 196 10.0 15.0 0.00 0.00 0.00 66 1012.8
20260903092750 71 195 10.0 15.0 0.00 0.00 0.00 66 1012.9
20260903092444 71 194 10.0 15.0 0.00 0.00 0.00 65 1012.9
20260903091731 72 190 11.0 15.0 0.00 0.00 0.00 65 1012.9
20260903091433 72 192 11.0 18.0 0.00 0.00 0.00 65 1013.0
20260903090701 72 194 11.0 18.0 0.00 0.00 0.00 65 1013.1
20260903090400 72 192 12.0 18.0 0.00 0.00 0.00 65 1013.0
20260903090055 72 193 12.0 18.0 0.00 0.00 0.00 64 1013.0
20260903085747 72 191 12.0 18.0 0.00 0.00 0.00 64 1012.9
20260903085021 72 188 12.0 17.0 0.00 0.00 0.00 64 1012.9
20260903084717 72 188 12.0 17.0 0.00 0.00 0.00 65 1012.9
20260903084421 72 188 12.0 17.0 0.00 0.00 0.00 65 1012.9
20260903084113 72 182 11.0 17.0 0.00 0.00 0.00 65 1012.8
20260903083813 72 184 10.0 17.0 0.00 0.00 0.00 65 1012.9
20260903083502 72 191 7.0 14.0 0.00 0.00 0.00 65 1013.1
20260903083200 72 194 6.0 13.0 0.00 0.00 0.00 65 1013.1
20260903082901 72 194 6.0 10.0 0.00 0.00 0.00 64 1013.3
20260903082138 73 194 7.0 13.0 0.00 0.00 0.00 64 1013.4
20260903081839 73 194 8.0 13.0 0.00 0.00 0.00 64 1013.5
20260903081525 73 194 9.0 13.0 0.00 0.00 0.00 64 1013.5
20260903081223 73 193 10.0 15.0 0.00 0.00 0.00 64 1013.4
20260903080454 73 188 11.0 15.0 0.00 0.00 0.00 64 1013.2
20260903075726 73 186 11.0 19.0 0.00 0.00 0.00 63 1013.2
20260903075008 74 187 12.0 19.0 0.00 0.00 0.00 63 1013.2
20260903074704 74 188 12.0 19.0 0.00 0.00 0.00 63 1013.2
20260903074407 74 190 12.0 19.0 0.00 0.00 0.00 63 1013.3
20260903074100 74 186 11.0 18.0 0.00 0.00 0.00 63 1013.3
20260903073803 74 184 10.0 18.0 0.00 0.00 0.00 63 1013.3
20260903073452 74 185 10.0 18.0 0.00 0.00 0.00 63 1013.4
20260903072735 74 184 10.0 15.0 0.00 0.00 0.00 63 1013.3
20260903072431 74 184 10.0 15.0 0.00 0.00 0.00 63 1013.3
20260903072129 74 185 10.0 17.0 0.00 0.00 0.00 63 1013.3
20260903071824 74 188 10.0 17.0 0.00 0.00 0.00 63 1013.3
20260903071101 74 186 10.0 17.0 0.00 0.00 0.00 63 1013.3
20260903070751 74 185 10.0 17.0 0.00 0.00 0.00 63 1013.3
20260903070024 74 187 9.0 13.0 0.00 0.00 0.00 63 1013.3
20260903065721 74 188 9.0 13.0 0.00 0.00 0.00 63 1013.4
20260903065418 74 188 9.0 13.0 0.00 0.00 0.00 63 1013.4
20260903065113 74 188 9.0 13.0 0.00 0.00 0.00 63 1013.4
20260903064800 74 188 9.0 13.0 0.00 0.00 0.00 62 1013.5
20260903064458 74 189 8.0 13.0 0.00 0.00 0.00 62 1013.5
20260903064148 74 190 9.0 13.0 0.00 0.00 0.00 62 1013.5
20260903063849 74 192 9.0 13.0 0.00 0.00 0.00 62 1013.5
20260903063120 74 193 8.0 11.0 0.00 0.00 0.00 61 1013.6
20260903062820 74 193 8.0 12.0 0.00 0.00 0.00 61 1013.5
20260903062506 74 194 8.0 12.0 0.00 0.00 0.00 61 1013.5
20260903062201 75 194 8.0 12.0 0.00 0.00 0.00 60 1013.6
20260903061852 75 194 9.0 12.0 0.00 0.00 0.00 60 1013.5
20260903061550 75 196 9.0 12.0 0.00 0.00 0.00 60 1013.6
20260903061252 75 196 9.0 12.0 0.00 0.00 0.00 60 1013.6
20260903060956 75 196 9.0 13.0 0.00 0.00 0.00 59 1013.7
20260903060650 75 197 9.0 13.0 0.00 0.00 0.00 59 1013.6
20260903060351 75 198 9.0 13.0 0.00 0.00 0.00 59 1013.6
20260903060039 76 198 9.0 13.0 0.00 0.00 0.00 59 1013.6
20260903055728 76 197 9.0 13.0 0.00 0.00 0.00 59 1013.5
20260903055009 76 198 10.0 13.0 0.00 0.00 0.00 58 1013.6
20260903054657 76 198 10.0 13.0 0.00 0.00 0.00 58 1013.6
20260903054350 76 198 10.0 13.0 0.00 0.00 0.00 58 1013.6
20260903054050 76 198 9.0 13.0 0.00 0.00 0.00 57 1013.7
20260903053742 77 198 9.0 12.0 0.00 0.00 0.00 57 1013.6
20260903053020 77 198 9.0 12.0 0.00 0.00 0.00 57 1013.6
20260903052713 77 198 9.0 12.0 0.00 0.00 0.00 56 1013.6
20260903052405 78 198 9.0 12.0 0.00 0.00 0.00 56 1013.7
20260903052053 78 198 10.0 17.0 0.00 0.00 0.00 56 1013.7
20260903051752 78 198 10.0 17.0 0.00 0.00 0.00 55 1013.9
20260903051447 78 198 11.0 17.0 0.00 0.00 0.00 55 1013.8
20260903051136 78 198 12.0 17.0 0.00 0.00 0.00 55 1013.8
20260903050829 78 200 12.0 17.0 0.00 0.00 0.00 55 1013.8
20260903050520 78 200 11.0 17.0 0.00 0.00 0.00 55 1013.9
20260903050211 78 202 11.0 15.0 0.00 0.00 0.00 55 1013.7
20260903045908 78 202 10.0 15.0 0.00 0.00 0.00 56 1013.8
20260903045156 77 201 10.0 13.0 0.00 0.00 0.00 56 1013.8
20260903044842 77 201 11.0 15.0 0.00 0.00 0.00 56 1013.8
20260903044539 77 201 11.0 15.0 0.00 0.00 0.00 56 1013.9
20260903044237 77 201 10.0 15.0 0.00 0.00 0.00 56 1014.0
20260903043939 77 201 11.0 15.0 0.00 0.00 0.00 56 1013.9
20260903043630 77 201 11.0 15.0 0.00 0.00 0.00 57 1014.0
20260903043322 77 202 11.0 15.0 0.00 0.00 0.00 57 1014.0
20260903043011 76 201 11.0 14.0 0.00 0.00 0.00 57 1014.0
20260903041838 76 203 8.0 14.0 0.00 0.00 0.00 57 1014.1
20260903041540 76 204 7.0 11.0 0.00 0.00 0.00 57 1014.1
20260903041243 75 204 7.0 10.0 0.00 0.00 0.00 57 1014.1
20260903040521 75 204 7.0 10.0 0.00 0.00 0.00 57 1014.1
20260903040210 74 204 7.0 10.0 0.00 0.00 0.00 56 1014.1
20260903035909 74 204 6.0 9.0 0.00 0.00 0.00 56 1014.2
20260903035557 74 204 5.0 8.0 0.00 0.00 0.00 56 1014.1
20260903034830 74 204 4.0 6.0 0.00 0.00 0.00 54 1014.1
20260903034523 74 204 4.0 4.0 0.00 0.00 0.00 52 1014.1
20260903034222 74 204 4.0 4.0 0.00 0.00 0.00 51 1014.2
20260903033925 75 204 4.0 4.0 0.00 0.00 0.00 51 1014.2
20260903033617 75 204 4.0 4.0 0.00 0.00 0.00 50 1014.2
20260903033311 75 204 4.0 6.0 0.00 0.00 0.00 49 1014.3
20260903032536 76 204 4.0 6.0 0.00 0.00 0.00 48 1014.3
20260903031800 77 204 5.0 8.0 0.00 0.00 0.00 47 1014.2
20260903031457 78 204 6.0 8.0 0.00 0.00 0.00 46 1014.2
20260903030740 78 204 6.0 8.0 0.00 0.00 0.00 46 1014.2
20260903030429 78 204 5.0 7.0 0.00 0.00 0.00 45 1014.2
20260903025707 79 204 4.0 6.0 0.00 0.00 0.00 42 1014.2
20260903025409 79 204 5.0 6.0 0.00 0.00 0.00 41 1014.2
20260903025101 80 204 4.0 6.0 0.00 0.00 0.00 41 1014.2
20260903024804 80 204 5.0 6.0 0.00 0.00 0.00 40 1014.2
20260903024505 80 204 5.0 6.0 0.00 0.00 0.00 40 1014.2
20260903024209 81 204 6.0 14.0 0.00 0.00 0.00 39 1014.2
20260903023858 81 204 6.0 14.0 0.00 0.00 0.00 38 1014.2
20260903023136 81 204 8.0 14.0 0.00 0.00 0.00 37 1014.1
20260903022834 80 204 7.0 14.0 0.00 0.00 0.00 39 1014.1
20260903022119 78 225 5.0 8.0 0.00 0.00 0.00 39 1014.0
20260903021817 78 225 5.0 6.0 0.00 0.00 0.00 38 1013.8
20260903021515 79 225 5.0 6.0 0.00 0.00 0.00 38 1013.7
20260903021209 79 225 5.0 6.0 0.00 0.00 0.00 37 1013.6
20260903020859 79 225 4.0 6.0 0.00 0.00 0.00 37 1013.6
20260903020138 80 225 4.0 5.0 0.00 0.00 0.00 36 1013.6
20260903015830 80 225 4.0 5.0 0.00 0.00 0.00 35 1013.5
20260903015521 81 225 4.0 5.0 0.00 0.00 0.00 35 1013.5
20260903015218 81 225 4.0 5.0 0.00 0.00 0.00 34 1013.5
20260903014913 81 225 4.0 5.0 0.00 0.00 0.00 34 1013.4
20260903014146 82 225 3.0 5.0 0.00 0.00 0.00 33 1013.4
20260903013838 83 225 4.0 5.0 0.00 0.00 0.00 33 1013.3
20260903013106 85 225 2.0 5.0 0.00 0.00 0.00 31 1013.3
20260903012754 86 225 1.0 4.0 0.00 0.00 0.00 29 1013.3
20260903012019 87 225 0.0 2.0 0.00 0.00 0.00 28 1013.2
20260903011717 87 225 0.0 2.0 0.00 0.00 0.00 28 1013.2
20260903011409 88 225 0.0 1.0 0.00 0.00 0.00 27 1013.2
20260903011110 89 225 0.0 0.0 0.00 0.00 0.00 27 1013.2
20260903010756 89 225 0.0 0.0 0.00 0.00 0.00 26 1013.2
20260903010459 90 225 1.0 0.0 0.00 0.00 0.00 26 1013.1
20260903004848 92 225 2.0 5.0 0.00 0.00 0.00 23 1013.3
20260903004537 92 225 3.0 5.0 0.00 0.00 0.00 23 1013.3
20260903004241 93 225 4.0 8.0 0.00 0.00 0.00 22 1013.5
20260903003934 93 225 4.0 8.0 0.00 0.00 0.00 22 1013.4
20260903002749 94 225 5.0 13.0 0.00 0.00 0.00 20 1013.5
20260903002447 95 225 6.0 13.0 0.00 0.00 0.00 19 1013.5
20260903002137 95 225 7.0 13.0 0.00 0.00 0.00 19 1013.5
20260903001832 95 225 7.0 13.0 0.00 0.00 0.00 19 1013.6
20260903001522 95 225 7.0 13.0 0.00 0.00 0.00 18 1013.6
20260903001225 95 236 7.0 12.0 0.00 0.00 0.00 18 1013.6
20260903000921 95 238 7.0 12.0 0.00 0.00 0.00 18 1013.6
20260903000616 95 240 7.0 12.0 0.00 0.00 0.00 18 1013.5
20260903000318 96 240 7.0 11.0 0.00 0.00 0.00 18 1013.6
20260903000003 96 240 7.0 11.0 0.00 0.00 0.00 18 1013.5
20260902235701 96 238 7.0 14.0 0.00 0.00 0.00 17 1013.5
20260902234524 96 221 9.0 14.0 0.00 0.00 0.00 19 1013.4
20260902234226 97 212 10.0 14.0 0.00 0.00 0.00 19 1013.3
20260902233913 97 211 10.0 14.0 0.00 0.00 0.00 19 1013.4
20260902233141 97 230 9.0 15.0 0.00 0.00 0.00 19 1013.4
20260902232842 97 238 10.0 15.0 0.00 0.00 0.00 18 1013.4
20260902232126 97 218 11.0 19.0 0.00 0.00 0.00 19 1013.3
20260902231824 97 221 11.0 19.0 0.00 0.00 0.00 20 1013.5
20260902231519 97 211 11.0 24.0 0.00 0.00 0.00 20 1013.4
20260902231208 97 215 10.0 24.0 0.00 0.00 0.00 20 1013.3
20260902230446 97 252 13.0 24.0 0.00 0.00 0.00 19 1013.4
20260902230143 97 241 13.0 24.0 0.00 0.00 0.00 19 1013.4
20260902225830 97 226 13.0 24.0 0.00 0.00 0.00 19 1013.4
20260902225518 97 234 12.0 19.0 0.00 0.00 0.00 21 1013.4
20260902225217 97 235 12.0 19.0 0.00 0.00 0.00 22 1013.4
20260902224915 97 219 12.0 19.0 0.00 0.00 0.00 22 1013.5
20260902224614 98 243 11.0 19.0 0.00 0.00 0.00 21 1013.4
20260902224306 97 227 13.0 28.0 0.00 0.00 0.00 21 1013.5
20260902224000 97 227 14.0 28.0 0.00 0.00 0.00 20 1013.5
20260902223252 97 211 12.0 29.0 0.00 0.00 0.00 19 1013.5
20260902222947 97 221 11.0 29.0 0.00 0.00 0.00 21 1013.5
20260902222645 97 240 12.0 29.0 0.00 0.00 0.00 22 1013.5